Погода в Лыченцах

Россия / Ярославская область     56°57′23″N   38°48′44″E
темп.,
°C
ветер,
м/с
пор.,
м/с
влажн.,
%
обл.,
%
осадки,
мм/ч
давл.,
гПа
погр.,
м
8 августа, пн
пн800:00+15ссз249997 0.3 1020197
03:00+14с2599100 0.4 1021261
06:00+15ссв2499100 0.2 1021265
09:00+16св2397100 0.6 1022338
12:00+17ссв338999 0.1 1022503
15:00+18с2384100 0.2 1022390
18:00+19с227797 0.0 1022434
21:00+14с239722 0.0 102262
9 августа, вт
вт900:00+13ссв259694 0.0 1022102
03:00+12ссв2292100 0.0 102238
06:00+14ссв2589100 0.0 1022179
09:00+17св2578100 0.0 1022386
12:00+19ссв2369100 0.0 1022793
15:00+21св3364100 0.1 10211149
18:00+17ссв257499 0.2 1021202
21:00+17с267362 0.2 1021167
10 августа, ср
ср1000:00+14ссв378318 0.0 1022172
03:00+12ссв269413 0.0 1022113
06:00+12ссв26900 0.0 1022158
09:00+18с34610 0.0 1023702
12:00+21ссз345412 0.3 10221444
15:00+21ссз44534 0.9 10221364
18:00+20с35574 0.0 10231394
21:00+13ссз22790 0.0 102428
11 августа, чт
чт1100:00+11с22890 0.0 102532
03:00+10с22935 0.0 102526
06:00+11ссз22865 0.0 102661
09:00+18с23545 0.0 1026557
12:00+22ссз22401 0.0 10261643
15:00+23сз22345 0.0 10241878
18:00+21сз2449100 0.0 1024264
21:00+16з116265 0.0 102511
12 августа, пт
пт1200:00+14зюз2367100 0.0 102554
03:00+13зюз2574100 0.0 102589
06:00+13з277797 0.0 1025141
09:00+19з365513 0.0 1025473
12:00+24з46435 0.0 10241346
15:00+25зсз46420 0.0 10231643
18:00+24сз36551 0.0 1022832
21:00+18зсз22760 0.0 102328